Regional Weather Roundup
Issued by NWS Charleston, SC

Current Version | Previous Version | Graphics & Text | Print | Product List | Glossary On
Versions: 1 2 3 4 5 6 7 8 9 10 11 12 13 14 15 16 17 18 19 20 21 22 23 24 25 26 27 28 29 30 31 32 33 34 35 36 37 38 39 40 41 42 43 44 45 46 47 48 49 50
000
ASUS42 KCHS 251112
RWRCHS

Regional Weather Roundup
National Weather Service Charleston SC
600 AM EST SUN FEB 25 2018

NOTE: "fair" indicates few or no clouds below 12,000 feet with no
significant weather and/or obstructions to visibility.

Not all stations are quality controlled. Use data with caution,
especially dewpoint observations.

SCZ027-030-031-034>040-042>050-251200-
...Southeast South Carolina...

CITY           SKY/WX    TMP DP  RH WIND       PRES   REMARKS
N Charleston   FAIR      66  63  90 S9        30.12R
Waterfront Prk   N/A     66  64  93 SW7       29.97S
Mount Pleasant FAIR      68  64  88 S8        30.13R
Johns Island   PTSUNNY   66  64  94 SW7       30.13R
Pinopolis        N/A     66  64  94 SW7       30.02R
Moncks Corner  FAIR      64  63  94 SW6       30.11R
Summerville    FAIR      64  63  94 S3        30.12R
Beaufort MCAS  MOCLDY    68  66  93 S6        30.12R
Beaufort Arpt  PTSUNNY   64  63  94 S7        30.13R FOG
Hilton Head Is FAIR      66  63  88 S9        30.14R
Walterboro     CLOUDY    63  63 100 S3        30.12S
Allendale      FAIR      63  63 100 CALM      30.10R

...Southern Midlands and Pee Dee...

CITY           SKY/WX    TMP DP  RH WIND       PRES   REMARKS
Georgetown     FAIR      66  64  94 SW12      30.13S
Kingstree      FAIR      63  63 100 S5        30.10R
Orangeburg     FAIR      62  60  93 SW6       30.10S
Barnwell         N/A     64  64 100 CALM      30.10R
Aiken          FAIR      61  61 100 S8        30.11R
Manning        FAIR      64  55  72 MISG      30.10R
Columbia       FAIR      65  63  93 SW6       30.07R
Sumter         FAIR      63  62  94 SW8       30.06R
Florence       FAIR      64  63  96 S6        30.09R
Myrtle Beach   FAIR      66  64  93 S7        30.13R
N Myrtle Beach CLOUDY    63  62  97 SW10      30.11S

$$

GAZ063-065-086>088-099>101-113>116-118-119-134>141-150-251200-
...Southeast Georgia...

CITY           SKY/WX    TMP DP  RH WIND       PRES   REMARKS
Savannah Arpt  MOCLDY    65  64  97 S6        30.13R
Hunter AAF     FAIR      67  63  87 S3        30.11R
Fort Stewart   FAIR      61  60  97 SE3       30.11R
Statesboro     FAIR      65  32  29 S6        30.11R
Sylvania       FAIR      63  63 100 CALM      30.12R
Claxton        FAIR      65  64  94 CALM      30.12R

...CSRA, Central and far Southeast Georgia...

CITY           SKY/WX    TMP DP  RH WIND       PRES   REMARKS
Thomson        FAIR      60  57  89 W8        30.12S
Augusta-Bush   FAIR      61  59  93 S5        30.08R
Augusta-Daniel FAIR      63  60  90 S7        30.08S
Swainsboro     FAIR      61  61 100 S3        30.11S
Vidalia        FAIR      63  63 100 S5        30.12R
Eastman        CLOUDY    64  58  79 SW5       30.13R HAZE
Hazlehurst     CLOUDY    65  65 100 SW7       30.12R FOG
Alma           CLOUDY    64  62  93 CALM      30.13R
Waycross       FAIR      64  61  90 SW5       30.13R
Jesup          FAIR      63  59  88 CALM      30.13S
Baxley         CLOUDY    61  61 100 CALM      30.13R FOG
Brunswick      MOCLDY    66  61  82 S3        30.15R
Saint Simons   MOCLDY    67  65  93 S6        30.14R

$$

SCZ027-028-034-036>038-045-046-048>050-GAZ119-141-251200-
...Lake and Supplemental Coastal Observations...

STATION/POSITION TIME  TEMP    WIND        PRES    WAVE   SWELL
                       AIR SEA DIR/SP/G            HT/PER HT/PER/DIR
                 (UTC) (F)     (DEG/KT/KT) (MB)    (FT/S) (FT/S/D)
Winyah Bay       0945   68     220/ 10     1020.0
Lake Murray      1020   64     210/  8/ 11 1017.3
ACE Basin NERRS  0945   67     180/  1     1020.0
Fort Pulaski     1048   66 62  200/  6/ 10 1020.5R
Sapelo Island    1000   66     160/  4     1020.0

$$

ANZ835-935-AMZ111-154-330-350-352-354-370-450-454-472-251200-
...C-MAN and Buoy Observations...

STATION/POSITION TIME  TEMP    WIND        PRES    WAVE   SWELL
                       AIR SEA DIR/SP/G            HT/PER HT/PER/DIR
                 (UTC) (F)     (DEG/KT/KT) (MB)    (FT/S) (FT/S/D)
Buoy 41004       1050   71 70  210/ 10/ 10 1020.3R   4/ 8   3/110/ 8
Buoy 41008       1050   63 60  180/  8/ 10 1020.2R   3/ 9   3/110/ 9
Folly Beach CMAN 1000   64     200/  8/ 10 1020.4F
Capers Nearshore 1008   61 63  220/ 10/ 14 1019.6F
Fripp Nearshore  1008   60 61  210/  8/ 12 1019.1F


STATION/POSITION TIME  TEMP    WIND        PRES    WAVE   SWELL
                       AIR SEA DIR/SP/G            HT/PER HT/PER/DIR
                 (UTC) (F)     (DEG/KT/KT) (MB)    (FT/S) (FT/S/D)
5E St. Marys GA  1030      65                N/A     3/10   2/110/11
Frying Pan Buoy  1050   73 71  210/ 16/ 19 1020.0F   5/ 9   2/150/ 9
Buoy 41025       1100   72 74  240/ 19/ 21 1020.0
Cape Lookout NC  1000          210/ 11/ 13 1020.2S
Buoy 41002       1050   72 72  210/ 10/ 12 1023.4R   5/ 9   5/120/ 9
Buoy 41010       NOT AVBL
St Augustine FL  1100   66 61  200/  5/  6 1021.6R


$$




USA.gov is the U.S. government's official web portal to all federal, state and local government web resources and services.